{"data":{"norad_id":50483,"intl_designator":"2021-132Q","name":"ONEWEB-0403","alt_names":[],"object_type":"PAYLOAD","status":"ACTIVE","operator":null,"country":"UK","launch_date":"2021-12-27","launch_site_code":"TYMSC","launch_vehicle":null,"mission":null,"orbit_class":"UNKNOWN","rcs_meters":null,"size_class":null,"mass_kg":null,"dimensions":null,"purposes":["comms"],"wikipedia_slug":null,"has_3d_model":false,"image_url":null,"decayed_at":null,"tle_current":{"epoch":"2026-09-19T23:08:07.154880Z","epoch_age_seconds":72197,"freshness":"FRESH","line1":"1 50483U 21132Q   26262.96397170  .00000049  00000+0  90976-4 0  9996","line2":"2 50483  87.9162 316.6263 0002009 100.3372 259.7986 13.18684110234085","mean_motion":13.1868411,"eccentricity":0.0002009,"inclination_deg":87.9162,"raan_deg":316.6263,"arg_perigee_deg":100.3372,"mean_anomaly_deg":259.7986,"bstar":9.0976e-5,"rev_number":23408,"period_min":109.19976885139,"perigee_km":1188.2299693892,"apogee_km":1191.2707465296,"semimajor_km":7567.8873579594,"source":"CELESTRAK","updated_at":"2026-09-20T09:00:44.702218Z"}}}